SCP
0 0 0 0 0 0 0 0 0 0 0 0 0 0 0 0 0 0 0 0 0 0 0 0 0 0 0 0 0 0 0 0 0 -0 -0 0 0 0 0 0 -0 -0 -0 0 0 0 0 0 0
0 0 0 0 0 0 0 0 0 0 0 0 0 0 0 0 0 0 0 0 0 0 0 0 0 0 0 0 0 0 -0 -0 -0 -0 -0 0 0 0 0 0 0 0 0 0 0 0 0 0 0
0 0 0 0 0 0 0 0 0 0 0 0 0 0 0 0 0 0 0 0 0 0 0 0 0 0 0 0 0 -0 -0 -0 -0 -0 0 0 0 0 0 0 0 0 0 0 0 0 0 0 0
0 0 0 0 0 0 0 0 0 0 0 0 0 0 0 0 0 0 0 0 0 0 0 0 0 0 0 0 0 0 -0 -0 -0 0 0 0 0 0 0 0 0 0 0 0 0 0 0 0 0
0 0 0 0 0 0 0 0 0 0 0 0 0 0 0 0 0 0 0 0 -0 -0 0 0 0 0 0 0 0 0 0 0 0 0 0 0 0 0 0 0 0 0 0 0 0 0 0 0 0
0 0 0 0 0 0 0 0 0 0 0 0 0 0 0 0 0 0 0 0 -0 -0 0 0 0 0 0 0 0 0 0 0 0 0 0 0 0 0 0 0 0 0 0 0 0 0 0 0 0
0 0 0 0 0 0 0 0 0 0 0 0 0 0 0 0 0 0 0 0 0 0 0 0 0 0 0 0 0 0 0 0 0 0 0 0 0 0 0 0 0 0 0 0 0 0 0 0 0
0 0 0 0 0 0 0 0 0 0 0 0 0 0 0 0 0 0 0 0 0 0 0 0 0 0 0 0 0 0 0 0 0 0 0 0 0 0 0 0 0 0 0 0 0 0 0 0 0
0 0 0 0 0 0 0 0 0 0 0 0 0 0 0 0 0 0 0 0 0 0 0 0 0 0 0 0 0 0 0 0 0 0 0 0 0 0 0 0 0 0 0 0 0 0 0 0 0
0 0 0 0 0 0 0 0 0 0 0 0 0 0 0 0 0 0 0 0 0 0 0 0 0 0 0 0 0 0 0 0 0 0 0 0 0 0 0 0 0 0 0 0 0 0 0 0 0
0 0 0 0 0 0 0 0 0 0 0 0 0 0 0 0 0 0 0 -0 0 0 0 0 0 0 0 0 0 0 0 0 0 0 0 0 0 0 0 0 0 0 0 0 0 0 0 0 0
0 0 0 0 0 0 0 0 0 0 0 0 0 0 0 0 0 0 0 0 0 0 0 0 0 0 0 0 0 0 0 0 0 0 0 0 0 0 0 0 0 0 0 0 0 0 0 0 0
0 0 0 0 0 0 0 0 0 0 0 0 0 0 0 0 0 0 0 0 0 0 0 0 0 0 0 0 0 0 0 0 0 0 0 0 0 0 0 0 0 0 0 0 0 0 0 0 0
0 0 0 0 0 0 0 0 0 0 0 0 0 0 0 0 0 0 0 0 0 0 0 0 0 0 0 0 0 0 0 0 0 0 0 0 0 0 0 0 0 0 0 0 0 0 0 0 0
0 0 0 0 0 0 0 0 0 0 0 0 0 0 0 0 0 0 0 0 0 0 0 0 0 0 0 0 0 0 0 0 0 0 0 0 0 0 0 0 0 0 0 0 0 0 0 0 0
0 0 0 0 0 0 0 0 0 0 0 0 0 0 0 0 0 0 0 0 0 0 0 0 0 0 0 0 0 0 0 0 0 0 0 0 0 0 0 0 0 0 0 0 0 0 0 0 0
0 0 0 0 0 0 0 0 0 0 0 0 0 0 0 0 0 0 0 0 0 0 0 0 0 0 0 0 0 0 0 0 0 0 0 0 0 0 0 0 0 0 0 0 0 0 0 0 0
0 0 0 0 0 0 0 0 0 0 0 0 0 0 0 0 0 0 0 0 0 0 0 0 0 0 0 0 0 0 0 0 0 0 0 0 0 0 0 0 0 0 0 0 0 0 0 0 0
0 0 0 0 0 0 0 0 0 0 0 0 0 0 0 0 0 0 0 0 0 0 0 0 0 0 0 0 0 0 0 0 0 0 0 0 0 0 0 0 0 0 0 0 0 0 0 0 0
0 0 0 0 0 0 0 0 0 0 0 0 0 0 0 0 0 0 0 0 0 0 0 0 0 0 0 0 0 0 0 0 0 0 0 0 0 0 0 0 0 0 0 0 0 0 0 0 0
0 0 0 0 0 0 0 0 0 0 0 0 0 0 0 0 0 0 0 0 0 0 0 0 0 0 0 0 0 0 0 0 0 0 0 0 0 0 0 0 0 0 0 0 0 0 0 0 0
0 0 0 0 0 0 0 0 0 0 0 0 0 0 0 0 0 0 0 0 0 0 0 0 0 0 0 0 0 0 0 0 0 0 0 0 0 0 0 0 0 0 0 0 0 0 0 0 0
0 0 0 0 0 0 0 0 0 0 0 0 0 0 0 0 0 0 0 0 0 0 0 0 0 0 0 0 0 0 0 0 0 0 0 0 0 0 0 0 0 0 0 0 0 0 0 0 0
0 0 0 0 0 0 0 0 0 0 0 0 0 0 0 0 0 0 0 0 0 0 0 0 0 0 0 0 0 0 0 0 0 0 0 0 0 0 0 0 0 0 0 0 0 0 0 0 0
0 0 0 0 0 0 0 0 0 0 0 0 0 0 0 0 0 0 0 0 0 0 0 0 0 1 0 0 0 0 0 0 0 0 0 0 0 0 0 0 0 0 0 0 0 0 0 0 0
0 0 0 0 0 0 0 0 0 0 0 0 0 0 0 0 0 0 0 0 0 0 0 1 1 1 1 0 0 0 0 0 0 0 0 0 0 0 0 0 0 0 0 0 0 0 0 0 0
0 0 0 0 0 0 0 0 0 0 0 0 0 0 0 0 0 0 0 0 0 1 1 1 1 1 1 0 0 0 0 0 0 0 0 0 0 0 0 0 0 0 0 0 0 0 0 0 0
0 0 0 0 0 0 0 0 0 0 0 0 0 0 0 0 0 0 0 0 1 1 1 1 1 1 1 0 0 0 0 0 0 0 0 0 0 0 0 0 0 -0 0 0 0 0 0 0 0
0 0 0 0 0 0 0 0 0 0 0 0 0 0 0 0 0 0 0 0 1 1 1 1 1 1 1 0 0 0 0 0 0 0 0 0 0 0 0 0 0 0 0 0 0 0 0 0 0
0 0 0 0 0 0 0 0 0 0 0 0 0 0 0 0 0 0 0 0 1 1 1 1 1 1 0 0 0 0 0 0 0 0 0 0 0 0 0 0 0 0 0 0 0 0 0 0 0
Wind_Speed
11 9 5 5 6 3 10 9 7 6 6 6 6 5 6 7 6 7 7 8 9 9 10 10 9 9 9 9 9 9 10 10 10 10 10 10 10 10 9 9 9 9 8 8 8 7 7 7 7
8 5 6 6 1 7 10 8 8 9 6 5 5 5 6 8 8 8 7 8 9 9 9 9 10 9 9 9 8 9 9 10 10 10 10 9 9 9 8 8 8 8 7 7 7 7 6 7 7
6 6 6 2 6 9 9 8 8 8 5 3 5 6 6 7 6 6 8 10 9 9 8 11 9 9 9 8 8 8 8 9 9 9 9 8 8 8 8 8 7 7 7 6 6 6 6 6 6
5 6 5 3 11 11 8 7 6 6 6 5 5 8 7 6 4 8 10 10 10 9 9 11 9 9 8 8 8 9 9 9 9 9 8 8 8 7 7 7 7 7 7 6 6 6 6 6 5
6 5 2 8 11 10 8 6 4 5 6 6 5 9 8 7 9 11 10 9 9 9 9 11 9 9 8 9 9 9 9 9 9 8 7 7 7 7 7 7 6 7 6 6 6 5 5 5 5
4 3 4 9 11 8 7 5 4 7 7 7 7 9 8 7 9 10 9 8 8 8 10 11 11 9 9 9 9 8 8 8 8 8 7 7 7 7 7 6 6 6 6 6 5 5 5 4 4
4 3 7 9 8 8 7 5 5 6 7 6 5 8 9 9 9 9 9 9 8 9 10 10 10 11 10 9 8 7 8 7 7 7 6 6 6 5 5 5 5 6 6 5 5 5 5 4 3
5 2 7 8 8 9 7 5 5 5 7 6 3 6 10 11 10 10 9 9 8 8 9 9 8 8 8 10 9 8 8 7 6 6 5 5 5 6 6 6 6 6 5 5 5 4 4 4 4
6 1 8 9 7 7 5 5 6 5 7 6 6 8 14 15 12 11 10 9 9 8 7 7 8 7 7 7 9 8 8 7 5 6 6 4 3 3 5 6 6 5 4 5 4 4 4 4 5
4 4 9 7 6 6 5 5 6 6 8 9 11 13 16 14 12 11 11 10 10 9 7 6 6 6 6 5 5 4 4 5 3 2 3 2 2 1 3 7 5 5 4 5 5 5 5 6 4
1 4 5 5 5 4 5 5 4 5 6 8 12 16 15 14 11 10 10 9 9 9 7 7 6 5 5 4 3 3 2 3 3 3 2 2 1 2 2 2 4 4 5 4 6 6 3 1 0
1 2 3 3 3 3 4 5 5 3 7 9 13 16 15 14 12 10 10 9 9 8 8 7 7 5 4 3 3 3 2 2 2 3 2 1 1 1 1 1 1 2 1 1 2 2 2 1 1
0 2 3 3 3 3 4 5 5 7 9 11 14 14 14 13 11 10 9 9 8 8 7 7 6 5 4 3 1 2 2 2 3 2 2 1 1 1 1 1 0 1 2 2 2 2 1 2 2
2 1 1 3 4 5 5 5 5 8 10 12 13 13 13 12 11 11 10 9 8 7 7 7 6 6 5 4 2 2 2 2 2 2 2 1 0 1 1 1 1 1 1 1 1 2 2 2 1
2 2 4 4 4 4 5 5 5 9 11 12 12 12 12 11 11 10 10 9 9 8 7 7 7 6 5 4 3 2 2 2 2 2 2 1 1 1 1 1 1 1 1 2 2 2 2 3 2
5 5 3 4 3 4 5 4 7 10 11 12 12 11 11 11 11 10 9 8 8 8 8 7 6 7 6 4 3 2 2 2 2 2 2 1 1 0 1 1 0 1 1 2 2 2 2 1 1
6 3 1 4 4 4 5 3 8 11 11 11 11 12 11 11 11 10 10 9 8 8 8 8 7 6 6 5 3 2 2 1 1 1 1 1 1 0 1 0 1 1 1 1 1 1 1 1 1
3 3 2 1 3 5 5 3 7 11 12 11 12 12 12 12 12 11 10 10 9 9 9 9 8 7 6 5 4 2 2 2 2 2 1 1 1 1 1 1 1 1 1 1 1 1 1 1 2
6 5 4 1 1 5 5 5 7 10 12 12 12 12 13 12 12 11 11 10 10 10 10 9 8 8 6 5 4 4 3 3 2 2 2 1 1 1 1 1 0 1 1 1 1 1 2 2 1
7 7 5 2 2 4 4 5 6 9 11 12 12 13 13 13 13 12 12 11 11 10 10 9 9 8 7 5 3 3 2 2 2 1 2 1 1 1 1 0 1 1 1 1 1 1 1 1 1
8 7 5 4 2 5 5 7 7 9 10 10 11 12 13 14 14 14 13 13 12 11 11 9 9 9 8 7 5 4 3 3 3 3 2 1 1 1 1 1 1 1 2 1 1 2 2 2 2
8 4 6 6 8 5 6 6 6 8 9 11 12 13 13 14 14 14 14 14 13 12 11 11 10 9 8 8 6 6 4 4 3 2 2 2 2 2 2 1 1 1 1 1 2 1 2 3 2
6 4 6 8 8 8 7 8 4 7 9 9 10 11 11 12 14 14 14 13 12 12 11 11 11 10 9 8 7 6 5 4 3 3 3 3 3 2 2 2 2 2 2 1 1 1 3 2 2
6 7 8 9 9 10 6 9 6 5 6 7 8 9 9 11 12 12 12 12 11 12 11 11 11 10 9 9 8 7 6 5 4 4 3 4 3 2 2 2 2 2 1 1 2 2 2 2 2
11 10 7 8 8 7 4 8 5 0 2 3 5 6 8 10 11 12 13 13 12 12 12 11 12 10 10 10 8 8 7 6 6 5 4 4 3 2 2 2 2 1 1 2 1 2 2 2 2
11 12 9 8 7 5 6 7 2 1 1 2 4 6 7 9 10 11 12 12 12 12 13 12 12 11 10 9 8 7 7 6 4 4 3 3 2 2 2 3 2 2 2 2 1 2 2 2 2
11 11 9 10 10 9 6 5 4 4 3 3 4 6 7 7 7 9 11 12 12 12 12 12 12 11 11 10 9 8 7 6 4 4 5 3 3 2 3 3 3 3 2 2 2 1 2 2 3
10 9 9 10 9 10 8 8 4 5 4 4 4 5 6 7 7 8 8 10 10 11 11 11 11 11 10 10 9 7 7 6 5 5 4 4 4 3 3 3 3 3 3 2 3 2 2 3 3
11 11 11 10 10 10 9 5 2 2 3 4 4 5 5 5 6 6 7 8 9 10 11 11 10 10 9 9 9 8 7 7 7 6 5 5 4 4 4 4 4 3 3 3 3 3 3 3 3
11 12 13 11 10 10 11 4 4 1 2 3 3 4 5 5 5 6 7 8 8 9 10 10 10 10 9 9 8 8 7 7 7 6 6 5 5 5 4 4 4 4 3 3 3 3 3 3 4
Wind_Direction
177 183 211 235 231 104 64 58 57 66 64 60 56 49 48 38 28 73 100 115 117 122 121 127 123 123 120 119 120 122 124 125 127 126 126 128 127 126 125 124 121 120 117 116 118 119 118 117 117
174 189 229 241 278 75 67 58 59 60 77 94 82 73 67 65 63 97 118 120 125 121 123 120 119 121 119 120 123 124 125 127 129 130 131 132 132 132 130 127 124 122 124 127 126 123 122 117 120
186 227 260 264 56 60 69 68 74 82 89 81 79 62 50 59 84 105 116 131 126 118 118 114 122 120 118 118 123 126 124 125 128 131 133 135 135 135 134 131 128 126 125 127 131 133 129 123 124
222 228 234 73 71 64 66 78 90 97 92 78 93 85 72 53 75 108 124 135 128 126 123 116 124 121 118 115 121 123 122 122 123 125 128 132 132 130 131 131 133 132 131 130 128 131 130 130 131
243 260 125 84 75 72 69 73 91 78 74 83 87 92 85 70 93 114 127 129 127 129 125 122 123 121 118 115 118 116 120 123 122 121 123 128 130 130 128 128 132 135 136 136 135 137 137 139 142
251 252 71 76 79 82 79 83 90 90 96 101 102 100 88 102 113 119 125 122 118 123 128 124 128 121 117 114 115 117 119 121 119 118 117 120 123 123 121 123 130 136 138 135 133 139 142 140 144
300 29 66 75 83 83 75 79 81 94 101 94 101 102 112 122 120 124 120 116 114 114 119 125 131 131 129 120 115 115 116 114 112 112 114 114 120 126 126 124 132 138 137 135 130 128 133 133 135
295 303 78 73 72 78 86 93 87 90 93 103 111 113 129 133 135 130 123 119 114 111 114 122 125 125 133 130 123 117 111 107 111 115 114 118 136 145 144 145 131 136 138 137 129 129 126 127 130
263 352 66 59 62 83 103 111 105 97 110 105 87 96 122 134 139 136 131 129 125 120 120 121 123 126 125 119 119 130 129 124 136 135 129 149 143 132 148 113 117 127 135 145 141 138 134 153 159
268 48 60 53 58 86 112 110 123 133 124 116 111 112 127 141 146 145 140 140 136 133 128 122 121 122 118 113 122 131 128 122 125 109 121 122 100 99 106 117 129 141 149 157 155 159 182 212 177
315 31 51 68 68 89 118 120 131 134 122 129 137 139 145 149 152 148 143 141 136 134 132 135 124 118 116 121 125 114 109 114 130 117 109 111 131 132 133 138 151 156 174 175 158 188 194 180 121
356 42 29 53 84 108 118 121 119 97 93 121 137 145 152 157 157 155 150 144 141 141 143 139 132 127 117 106 117 136 131 128 117 117 139 132 115 102 107 119 121 145 145 155 176 170 153 165 183
168 42 51 82 117 115 124 117 110 110 115 129 139 151 158 161 160 157 153 151 153 153 151 145 138 131 135 135 159 130 134 136 129 127 133 150 149 128 118 112 143 166 151 175 182 163 159 184 186
28 40 91 119 124 130 137 134 136 124 136 141 150 160 164 165 165 162 165 166 164 164 160 152 161 156 158 161 160 141 140 150 146 145 133 174 115 99 157 149 156 159 177 165 189 179 187 208 183
220 206 163 142 146 142 161 144 140 137 151 155 161 165 168 171 174 176 175 175 172 173 172 169 171 164 168 170 171 166 174 146 132 124 132 154 110 126 198 170 182 140 160 165 184 188 201 205 196
222 221 176 140 167 169 225 131 142 156 168 168 169 170 175 178 182 181 181 182 177 177 174 178 178 167 167 175 185 176 171 147 156 140 132 123 97 162 250 208 155 129 179 177 184 204 201 197 214
213 229 190 144 178 188 225 146 145 172 182 179 178 179 182 184 190 187 187 186 183 181 179 178 178 174 172 173 187 185 175 177 177 159 153 121 133 211 247 240 102 210 192 189 210 144 217 195 216
261 263 259 230 165 214 225 187 158 180 193 190 187 187 190 193 193 188 190 186 184 182 183 181 180 177 177 179 184 183 178 182 183 173 136 146 185 184 263 201 188 241 186 171 145 157 208 232 230
282 276 279 304 153 234 233 225 194 187 199 200 197 195 196 198 189 185 188 186 184 182 183 184 186 175 184 184 189 185 182 184 180 160 136 165 174 149 259 298 197 256 177 169 185 195 184 209 214
252 260 256 213 159 254 252 243 214 202 206 207 204 200 200 196 189 188 189 189 188 182 182 182 183 180 189 180 187 187 178 185 170 159 154 185 172 224 204 229 239 233 182 162 178 215 239 191 203
242 257 272 265 211 217 246 231 207 202 208 211 212 209 205 201 194 188 193 193 188 185 185 185 184 182 187 181 185 175 176 194 183 186 178 179 204 217 255 212 245 243 241 177 209 232 240 232 209
242 251 264 253 248 234 243 263 205 199 201 208 209 208 208 201 196 193 192 194 192 188 184 183 182 184 184 188 193 194 199 199 187 196 172 191 200 207 208 212 220 251 253 203 232 198 257 259 243
260 261 252 252 257 258 233 260 216 196 211 211 207 208 207 200 196 196 195 192 192 186 183 180 180 182 184 192 192 203 206 200 182 187 179 212 195 205 204 204 212 232 246 227 286 271 268 263 277
227 228 227 236 247 249 243 260 246 207 222 212 203 204 204 198 195 194 192 188 190 184 182 178 177 183 185 192 193 200 202 204 197 199 190 209 195 196 190 204 218 234 250 220 240 253 244 274 289
220 235 235 231 231 242 221 253 261 237 242 233 216 202 201 196 194 191 190 187 188 185 182 178 176 181 187 191 193 196 200 204 204 209 200 223 208 194 185 211 218 227 237 241 239 230 263 254 259
222 243 253 263 266 255 209 247 249 111 199 224 214 195 189 194 194 191 189 187 185 183 183 179 178 181 185 188 192 196 201 209 204 206 212 213 224 204 187 209 213 214 225 233 232 237 229 237 250
225 236 258 268 270 269 245 240 208 174 186 189 189 183 182 184 187 189 185 184 184 183 182 182 181 184 186 187 190 194 202 212 208 202 212 207 205 197 184 203 212 213 212 222 236 246 260 265 260
249 242 238 250 260 263 253 242 236 189 199 191 185 179 179 178 181 187 183 183 182 183 178 180 183 185 185 186 193 191 195 201 208 214 211 213 209 206 204 205 210 215 212 210 230 229 230 251 260
209 224 236 249 257 266 266 255 89 197 202 204 188 178 178 180 179 178 174 175 176 175 173 177 180 182 185 189 192 195 194 198 204 207 208 210 210 202 209 214 216 219 225 222 229 245 233 244 257
235 235 233 239 242 253 270 267 104 158 197 204 194 174 172 178 174 168 163 163 167 168 171 173 178 181 184 186 188 194 196 198 204 205 203 203 207 209 207 211 216 223 223 229 231 247 250 255 258